Fecha,Servicios M�viles pospago,Internet M�vil pospago,M2M pospago,Suscriptores de banda ancha m�vil pospago,Suscriptores a la telefon�a m�vil pospago
2018-01-01,2080246,246831,98590,1481162,1734825
2018-02-01,2073278,244616,100682,1473871,1727980
2018-03-01,2078804,245863,102260,1496222,1730681
2018-04-01,2083637,246915,104164,1502527,1732558
2018-05-01,2086545,250928,106395,1505909,1729222
2018-06-01,2087278,251710,108766,1508846,1726802
2018-07-01,2080540,249531,109763,1507695,1721246
2018-08-01,2092907,258052,113359,1512020,1721496
2018-09-01,2103574,257226,122845,1518595,1723503
2018-10-01,2118974,257554,137711,1524688,1723709
2018-11-01,2138075,258845,152672,1530452,1726558
2018-12-01,2156176,260224,165210,1539231,1730742
2019-01-01,2186864,259511,195262,1544653,1732091
2019-02-01,2210816,258656,217608,1550218,1734552
2019-03-01,2220327,257905,224267,1557452,1738155
2019-04-01,2230195,258136,230900,1560540,1741159
2019-05-01,2274325,265372,267171,1560449,1741782
2019-06-01,2308992,266554,297696,1557803,1744742
2019-07-01,2353494,267188,338419,1554400,1747887
2019-08-01,2404905,265941,385566,1595765,1753398
2019-09-01,2444606,266864,420066,1604658,1757676
2019-10-01,2474116,266589,445685,1613314,1761842
2019-11-01,2503852,267692,468600,1618104,1767560
2019-12-01,2525824,268029,482814,1630694,1774981
2020-01-01,2545628,269151,494373,1637544,1782104
2020-02-01,2548373,268710,495918,1640138,1783745
2020-03-01,2555913,271124,494802,1647407,1789987
2020-04-01,2553897,272179,493025,1641709,1788693
2020-05-01,2556896,271352,499932,1641076,1785612
2020-06-01,2567356,270440,508550,1645506,1788366
2020-07-01,2587480,268041,525160,1648233,1794279
2020-08-01,2594595,267523,526587,1645713,1800485
2020-09-01,2593406,263607,527118,1640067,1802681
2020-10-01,2589017,254897,528043,1637991,1806077
2020-11-01,2592162,253685,529267,1632528,1809210
2020-12-01,2609316,254603,539454,1678955,1815259
2021-01-01,2667629,246711,580837,1681139,1840081
2021-02-01,2713976,243039,625763,1683063,1845174
2021-03-01,2758898,242899,666198,1687040,1849801
2021-04-01,2802528,242162,708115,1684450,1852251
2021-05-01,2832779,242360,736619,1682200,1853800
2021-06-01,2865817,243134,766944,1678779,1855739
2021-07-01,2903299,243877,799989,1677730,1859433
2021-08-01,2916759,244041,810555,1672714,1862163
2021-09-01,2928427,243702,818444,1668430,1866281
2021-10-01,2955922,250574,833904,1665630,1871444
2021-11-01,2977761,242352,857207,1661557,1878202
2021-12-01,3004559,243593,880969,1658511,1879997
2022-01-01,3047647,251863,905436,1716163,1890348
2022-02-01,3080840,254861,929910,1717995,1896069
2022-03-01,3125904,256036,957040,1734103,1912828
2022-04-01,3159169,248748,979299,1754901,1931122
2022-05-01,3215147,249734,1011073,1774153,1954340
2022-06-01,3253133,253582,1020200,1794134,1979351
2022-07-01,3284553,257723,1023214,1817460,2003616
2022-08-01,3449933,261610,1155135,1845087,2033188
2022-09-01,3520844,265250,1195036,1868346,2060558
2022-10-01,3557646,272784,1210304,1895862,2074558
2022-11-01,3587715,275660,1212436,1921030,2099619
2022-12-01,3603190,282737,1212067,1932979,2108386
2023-01-01,3675675,285646,1258073,1957003,2131956
2023-02-01,3757248,288569,1315027,1978405,2153652
2023-03-01,3824714,276031,1358802,1932418,2189881
2023-04-01,3833530,278657,1381394,1878107,2173479
2023-05-01,3910020,279956,1424118,1891089,2205946
2023-06-01,3972104,283139,1467021,1900344,2221944
